#timestamp,LO_Frequency,Hit 
1505426415.7,286047008.8,N
1505426435.5,286047006.2,N
1505426455.4,286047010.7,P
1505426475.2,286047007.6,N
1505426495.0,286047009.0,P
1505426495.9,286047009.0,P
1505426515.8,286046998.6,P
1505426535.6,286046996.8,N
1505426555.4,286047000.7,N
1505426575.3,286047001.5,N
1505426595.1,286047001.4,N
1505426596.0,286047001.4,N
1505426615.8,286047000.9,N
1505426635.7,286046999.0,N
1505426655.5,286046997.4,N
1505426675.3,286046996.2,N
1505426695.1,286046995.8,N
1505426715.9,286046995.3,N
1505426735.7,286046999.2,N
1505426755.5,286046999.1,N
1505426775.4,286046995.2,N
1505426795.2,286046994.2,N
1505426815.0,286046994.4,N
1505426815.9,286046994.4,N
1505426835.8,286046992.8,N
1505426855.6,286046988.0,N
1505426875.4,286046988.7,N
1505426895.3,286046994.6,N
1505426915.1,286046991.8,N
1505426916.0,286046991.8,N
1505426935.8,286046996.4,N
1505426955.7,286046992.9,N
1505426975.5,286046987.8,N
1505426995.3,286046985.6,N
1505427015.2,286046985.7,N
1505427035.9,286046986.2,N
1505427055.7,286046984.2,P
1505427075.6,286046988.2,N
1505427095.4,286046984.5,P
1505427115.2,286046985.2,P
1505427135.1,286046999.0,N
1505427136.0,286046999.0,N
1505427155.8,286046996.6,N
1505427175.6,286046994.5,N
1505427195.5,286046994.6,N
1505427215.3,286046995.3,N
1505427235.1,286047000.8,N
1505427255.9,286047002.5,N
1505427275.7,286047006.8,N
1505427295.5,286047008.6,N
1505427315.3,286047009.0,N
1505427335.2,286047008.8,N
1505427355.0,286047004.7,N
1505427355.9,286047004.7,N
1505427375.7,286046998.7,N
1505427395.6,286047000.1,N
1505427415.4,286047004.3,N
1505427435.2,286047002.9,N
1505427455.1,286047007.0,N
1505427456.0,286047007.0,N
1505427475.8,286047005.0,N
1505427495.6,286047007.4,N
1505427515.5,286047006.2,N
1505427535.3,286047006.6,N
1505427555.1,286047006.3,N
1505427575.9,286047006.7,N
1505427595.7,286047003.3,N
1505427615.5,286047000.2,N
1505427635.4,286047005.8,N
1505427655.2,286047005.8,N
1505427675.0,286047002.0,N
1505427675.9,286047002.0,N
1505427695.7,286047001.0,N
1505427715.6,286046998.9,N
1505427735.4,286046996.2,N
1505427755.2,286046994.7,N
1505427775.1,286046996.1,N
1505427776.0,286046996.1,N
1505427795.8,286046995.7,N
1505427815.6,286046993.4,N
1505427835.5,286046991.8,N
1505427855.3,286046995.2,N
1505427875.1,286046996.5,N
1505427895.9,286047002.1,N
1505427915.7,286047000.6,N
1505427935.5,286047000.9,N
1505427955.4,286047001.8,N
1505427975.2,286047005.3,N
1505427995.0,286046998.8,N
1505427995.9,286046998.8,N
1505428015.8,286046994.6,N
1505428035.6,286047001.2,N
1505428055.4,286047002.0,N
1505428075.2,286047005.5,N
1505428095.1,286047006.4,N
1505428096.0,286047006.4,N
1505428115.8,286047008.7,N
1505428135.6,286047008.1,N
1505428155.5,286047012.2,N
1505428175.3,286047012.1,N
1505428195.1,286047015.3,N
1505428215.9,286047014.9,N
1505428235.7,286047014.7,N
1505428255.5,286047018.7,N
1505428275.4,286047018.4,N
1505428295.2,286047018.0,N
1505428315.0,286047017.3,N
1505428315.9,286047017.3,N
1505428335.8,286047016.5,N
1505428355.6,286047018.7,N
1505428375.4,286047018.1,N
1505428395.3,286047016.0,N
1505428415.1,286047016.4,N
1505428416.0,286047016.4,N
1505428435.8,286047020.1,N
1505428455.7,286047021.1,N
1505428475.5,286047021.5,N
1505428495.3,286047020.5,N
1505428515.1,286047019.0,N
1505428535.9,286047022.1,P
1505428555.7,286047010.6,N
1505428575.5,286047007.8,N
1505428595.4,286047009.2,N
1505428615.2,286047007.4,N
1505428635.0,286047003.1,N
1505428635.9,286047003.1,N
1505428655.8,286047002.2,N
1505428675.6,286047004.4,N
1505428695.4,286047003.7,N
1505428715.3,286047003.3,N
1505428735.1,286047007.4,N
1505428755.8,286047006.7,N
1505428775.7,286047008.6,N
1505428795.5,286047009.2,N
1505428815.3,286047006.4,N
1505428835.2,286047006.7,N
1505428855.9,286047007.0,N
1505428875.7,286047012.1,N
1505428895.6,286047013.6,P
1505428915.4,286047007.4,N
1505428935.2,286047005.3,N
1505428955.1,286047001.7,N
1505428956.0,286047001.7,N
1505428975.8,286047004.2,N
1505428995.6,286047001.7,N
1505429015.5,286047005.8,N
1505429035.3,286046998.9,N
1505429055.1,286046998.9,N
1505429075.8,286046998.1,N
1505429095.7,286047001.1,N
1505429115.5,286046999.8,N
1505429135.3,286047002.2,N
1505429155.2,286047001.3,N
1505429175.9,286046999.3,N
1505429195.7,286046997.5,N
1505429215.6,286046995.1,N
1505429235.4,286046992.1,N
1505429255.2,286046994.1,N
1505429275.1,286046996.1,N
1505429276.0,286046996.1,N
1505429295.8,286046990.2,N
1505429315.6,286046986.9,N
1505429335.4,286046985.0,N
1505429355.3,286046981.2,N
1505429375.1,286046979.7,N
1505429395.9,286046976.2,P
1505429415.7,286046978.5,N
1505429435.5,286046982.0,N
1505429455.3,286046982.7,N
1505429475.2,286046987.3,N
1505429495.0,286046989.4,N
1505429495.9,286046989.4,N
1505429515.7,286046989.5,N
1505429535.6,286046986.9,N
1505429555.4,286046994.6,N
1505429575.2,286046995.2,N
1505429595.1,286046995.2,N
1505429596.0,286046995.2,N
1505429615.8,286046997.8,N
1505429635.6,286046996.9,N
1505429655.5,286046999.1,N
1505429675.3,286047000.4,N
1505429695.1,286047000.0,N
1505429715.9,286047000.8,N
1505429735.7,286046999.8,N
1505429755.5,286046998.4,N
1505429775.3,286046999.1,N
1505429795.2,286046997.4,N
1505429815.0,286046994.9,N
1505429815.9,286046994.9,N
1505429835.7,286046997.6,N
1505429855.6,286046996.4,N
1505429875.4,286046994.3,N
1505429895.2,286046992.2,N
1505429915.1,286046993.4,N
1505429916.0,286046993.4,N
1505429935.8,286046995.8,N
1505429955.6,286046997.2,N
1505429975.5,286047000.9,N
1505429995.3,286046996.7,N
